Retour au catalogue

SL-23 R/B

ActifHEO
NORAD 39238·ROCKET BODY·🇷🇺 Russia

Lancé Aug 31, 2013 depuis Baikonur Cosmodrome

Loading…

Prochains Passages (prochaines 24 heures)

TLE

FraisSource: Space-Track

Époque: Sep 14, 2026, 00:36 UTC

1 39238U 13045B   26257.02553449 -.00000195  00000-0  00000-0 0  9998
2 39238  26.6316  60.8901 6405964 139.0639 293.1582  2.10664027100335

Suivez SL-23 R/B en temps réel avec AllMySat

Download on the App Store